Regional Weather Roundup
Issued by NWS Charleston, WV

Home | Current Version | Previous Version | Text Only | Print | Product List | Glossary On
Versions: 1 2 3 4 5 6 7 8 9 10 11 12 13 14 15 16 17 18 19 20 21 22 23 24 25 26 27 28 29 30 31 32 33 34 35 36 37 38 39 40 41 42 43 44 45 46 47 48 49 50
000
ASUS41 KRLX 221810
RWRRLX
Regional Weather Roundup
National Weather Service Charleston WV
100 PM EST FRI NOV 22 2019

Note: "fair" indicates few or no clouds below 12,000 feet with no
significant weather and/or obstructions to visibility.

WVZ003-221900-
Northern Panhandle of West Virginia

CITY           SKY/WX    TMP DP  RH WIND       PRES   REMARKS
WHEELING       PTSUNNY   41  30  65 W15       30.01S
$$

WVZ009-221900-
Northwest West Virginia

CITY           SKY/WX    TMP DP  RH WIND       PRES   REMARKS
PARKERSBURG    CLOUDY    44  38  79 VRB6      30.07F
$$

WVZ006-221900-
Western West Virginia

CITY           SKY/WX    TMP DP  RH WIND       PRES   REMARKS
HUNTINGTON     CLOUDY    44  41  89 N8        30.07F
$$

WVZ015-221900-
West Central West Virginia

CITY           SKY/WX    TMP DP  RH WIND       PRES   REMARKS
CHARLESTON     LGT RAIN  45  42  89 NW3       30.03F
$$

WVZ022-031-221900-
North Central West Virginia

CITY           SKY/WX    TMP DP  RH WIND       PRES   REMARKS
MORGANTOWN     CLOUDY    42  37  82 VRB7      30.01S
CLARKSBURG     CLOUDY    45  39  79 N8        30.00S
BUCKHANNON     CLOUDY    43  43 100 W6        29.99F
$$

WVZ025-035-042-045-221900-
Southern West Virginia

CITY           SKY/WX    TMP DP  RH WIND       PRES   REMARKS
BECKLEY        LGT RAIN  44  42  93 NW9       29.99S FOG
LOGAN          LGT RAIN  43  43 100 CALM      30.03F
PINEVILLE      DRIZZLE   51  50  95 MISG      30.04F
BLUEFIELD      LGT RAIN  46  46 100 W16G26    29.99F FOG
LEWISBURG      DRIZZLE   50  46  87 N20G25    29.96F
$$

WVZ047-221900-
Northern Mountains of West Virginia

CITY           SKY/WX    TMP DP  RH WIND       PRES   REMARKS
ELKINS         LGT RAIN  43  38  82 NW8       29.98F
$$

WVZ052-221900-
Eastern Panhandle of West Virginia

CITY           SKY/WX    TMP DP  RH WIND       PRES   REMARKS
MARTINSBURG    CLOUDY    52  36  54 W22G32    29.87R
PETERSBURG     LGT RAIN  50  40  68 NW12G22   29.94R
$$

Southeast Ohio/Northeast Kentucky

CITY           SKY/WX    TMP DP  RH WIND       PRES   REMARKS
ATHENS         FAIR      44  35  71 NW5       30.06F
ASHLAND        PTSUNNY   45  40  82 VRB6      30.09S
$$



USA.gov is the U.S. government's official web portal to all federal, state and local government web resources and services.